Location: Zagreb
(45.8000°N, 16.0000°E)
Time: 08:47:31
(UTC+02:00)

Courier 1B Rocket - Pass Details

Date: 10 August 2022
Orbit: 920 x 1202 km, 28.2° (Epoch: 25 September)

Event Time Altitude Azimuth Distance (km) Brightness Sun altitude
Rises 19:25:13 0° 235° (SW) 3,594 8.6 6.9°
Reaches altitude 10° 19:28:49 10° 215° (SW) 2,687 7.6 6.3°
Maximum altitude 19:32:41 16° 178° (S) 2,296 6.8 5.7°
Drops below altitude 10° 19:36:40 10° 141° (SE) 2,796 6.9 5.0°
Sets 19:40:32 0° 122° (ESE) 3,809 7.4 4.4°
